Other Surface Observations
Issued by NWS

Home | Current Version | Previous Version | Text Only | Print | Product List | Glossary On
Versions: 1 2 3 4 5 6 7 8 9 10 11 12 13 14 15 16 17 18 19 20 21 22 23 24 25 26 27 28 29 30 31 32 33 34 35 36 37 38 39 40 41 42 43 44 45 46 47 48 49 50
000
SXUS52 KTAE 052218
OSOTAE
OSOTAE
North Florida/South Alabama/Southwest Georgia Weather Roundup
National Weather Service Tallahassee Florida
600 PM EDT TUE MAY 05 2015

Note: "fair" indicates few or no clouds below 12,000 feet with no
significant weather and/or obstructions to visibility.

!FLZ017-115-028-034-025-052300
...North Florida...

CITY           SKY/WX    TMP DP  RH WIND       PRES   REMARKS
TALLAHASSEE    PTSUNNY   83  57  41 NE6       30.13F
APALACHICOLA   CLOUDY    80  64  58 E9        30.12S
PERRY          CLOUDY    78  62  56 NE9G17    30.14S
CROSS CITY       N/A     81  63  54 NE8G20    30.11F
JACKSONVILLE   CLOUDY    74  62  66 NE16      30.17F
$$

!FLZ112-006-005-002-011-052300
...Florida Panhandle...

CITY           SKY/WX    TMP DP  RH WIND       PRES   REMARKS
MARIANNA       PTSUNNY   83  54  36 E10       30.12F
BONIFAY        NOT AVBL
PANAMA CITY NW FAIR      82  61  48 SE9       30.11S
TYNDALL AFB    PTSUNNY   82  60  47 E6        30.11F
TYND DRONE APT MOCLDY    82  61  49 E8        30.10F
DE FUNIAK SPR  FAIR      82  51  34 NE9       30.13F
EGLIN AFB      MOSUNNY   79  62  56 S7        30.12S
DESTIN         SUNNY     78  62  57 S6        30.12F
HURLBURT       SUNNY     78  59  51 S7        30.11F
CRESTVIEW      MOSUNNY   85  55  35 NE10G16   30.14S
PENSACOLA      SUNNY     78  59  51 S9        30.12F
$$

!ALZ063-066-052300
...South Alabama...

CITY           SKY/WX    TMP DP  RH WIND       PRES   REMARKS
DOTHAN         MOSUNNY   81  50  33 NE10      30.18F
OZARK CAIRNS   MOSUNNY   81  52  36 NE10      30.14F
FT RUCKER HELI MOSUNNY   82  49  31 SE7       30.13F
RUCKER HELI 3  FAIR      80  49  32 E9G15     30.16
RUCKER HELI 2  FAIR      81  48  31 E8        30.14F
FLORALA APT    MOSUNNY   82  52  35 E8        30.15F
ANDALUSIA      MOSUNNY   86  51  29 E9        30.14F
TROY           SUNNY     82  53  36 E9        30.16F
EUFALA         FAIR      84  52  33 E8        30.16S
MOBILE         MOSUNNY   80  59  48 SE10      30.13F
$$

!GAZ120>161-052300
...Southwest and South Central Georgia...

CITY           SKY/WX    TMP DP  RH WIND       PRES   REMARKS
THOMASVILLE    PTSUNNY   79  59  50 NE8G16    30.16S
BAINBRIDGE     MOSUNNY   84  55  37 NE12      30.15S
MOODY AFB      CLOUDY    78  59  51 E13       30.15S
VALDOSTA       CLOUDY    78  60  53 E10       30.16S
MOULTRIE       PTSUNNY   81  55  41 NE8       30.16F
BLAKELY        SUNNY     82  52  34 E7        30.16F
ALBANY         MOSUNNY   82  53  36 E13       30.18F
TIFTON         CLOUDY    78  54  42 E6        30.17S
FITZGERALD     CLOUDY    80  52  38 E5        30.20S
CORDELE        FAIR      83  51  32 E12       30.19F
AMERICUS       FAIR      79  50  36 SE10      30.20F
HOMERVILLE     CLOUDY    79  61  53 E12       30.17F
$$

!GMZ750-755-770-775-052300
...Coastal and Buoy Obs...

STATION/POSITION TIME  TEMP    WIND        PRES    VSBY  WAVE
                       AIR SEA DIR/SP/G                  HT/PER
                 (UTC) (F)     (DEG/KT/KT) (MB)    (MI)  (FT/S)
KEATON BEACH     2200   78      60/ 14/ 18 1020.0F
CEDAR KEY        2200   75      30/  6/  8 1019.4F
C TOWER          2200   74      80/ 14/ 15 1019.8F
APALACHICOLA BUO 2150   75 75   40/ 12/ 12 1019.0F         4/ 5
PANAMA CITY BUOY 2150   74 75  100/ 16/ 17 1019.4F         5/ 7
MOBILE BUOY      2150   74 76  100/ 16/ 19 1019.8F
ORANGE BCH AL BU 2150   74 74  130/ 10/ 12 1019.3F         5/ 7
$$



USA.gov is the U.S. government's official web portal to all federal, state and local government web resources and services.